Regional Weather Roundup
Issued by NWS Sioux Falls, SD

Home | Current Version | Previous Version | Text Only | Print | Product List | Glossary On
Versions: 1 2 3 4 5 6 7 8 9 10 11 12 13 14 15 16 17 18 19 20 21 22 23 24 25 26 27 28 29 30 31 32 33 34 35 36 37 38 39 40 41 42 43 44 45 46 47 48 49 50
000
ASUS43 KFSD 282110
RWRFSD

WEATHER ROUNDUP FOR SE SOUTH DAKOTA/SW MINNESOTA/NW IOWA
NATIONAL WEATHER SERVICE SIOUX FALLS SD
400 PM CDT SAT MAR 28 2015

NOTE: "FAIR" INDICATES FEW OR NO CLOUDS BELOW 12,000 FEET WITH NO
SIGNIFICANT WEATHER AND OR OBSTRUCTIONS TO VISIBILITY.


SDZ038>040-050-052>070-282200-
SOUTHEAST SOUTH DAKOTA

CITY           SKY/WX    TMP DP  RH WIND       PRES   REMARKS
CHAMBERLAIN    SUNNY     62  35  37 SE22      29.85F
HURON          SUNNY     55  29  36 SE20G31   29.89F
MADISON        FAIR      48  27  43 S24G31    29.96F
MITCHELL       SUNNY     57  31  37 SE24G33   29.93F
SIOUX FALLS    SUNNY     52  27  38 S20G32    29.99F
WINNER         FAIR      72  34  24 S21G28    29.81F
YANKTON        SUNNY     54  30  40 S21G26    29.98F
$$

MNZ071-072-080-081-089-090-097-098-282200-
SOUTHWEST MINNESOTA

CITY           SKY/WX    TMP DP  RH WIND       PRES   REMARKS
FAIRMONT       SUNNY     45  21  39 S22G29    30.08F
JACKSON        SUNNY     45  25  45 S22       30.08F
LUVERNE        SUNNY     52  27  37 S20       30.02F
MARSHALL       MOSUNNY   46  27  46 S24       30.02F
MONTEVIDEO     MOSUNNY   46  30  53 SW15G28   30.02F
PIPESTONE      SUNNY     48  28  46 S21G28    29.99F
REDWOOD FALLS  PTSUNNY   47  28  47 S17G31    30.05F
TRACY          MOSUNNY   47  31  53 S18G24    30.03F
WINDOM         SUNNY     45  27  49 S17G23    30.06F
WORTHINGTON    MOSUNNY   45  28  53 SE18G25   30.05F
$$

IAZ001>003-012>014-020>022-031-032-NEZ013-014-SDZ071-282200-
NORTHWEST IOWA

CITY           SKY/WX    TMP DP  RH WIND       PRES   REMARKS
CHEROKEE       SUNNY     50  27  41 S15G26    30.06F
DENISON        SUNNY     50  27  40 S16G31    30.06F
ESTHERVILLE    SUNNY     46  25  43 S22G30    30.08F
LE MARS        SUNNY     52  27  37 S14G21    30.04F
ORANGE CITY    SUNNY     52  25  35 S16       30.03F
SHELDON        SUNNY     48  28  46 S17G26    30.03F
SIOUX CITY     SUNNY     55  27  34 S17G24    30.05F
SPENCER        MOSUNNY   47  28  47 S18       30.07F
STORM LAKE     SUNNY     48  27  43 S18G24    30.07F
$$

ABBREVIATIONS USED IN REMARKS
   TC - TEMPERATURE IN CELSIUS
  WCI - WIND CHILL INDEX
   HX - HEAT INDEX
  VSB - VISIBILITY




USA.gov is the U.S. government's official web portal to all federal, state and local government web resources and services.